Home > Time Zones > World Clock > Weather > Germany > Ulm > Past weeks

Flag for Germany Weather past 2 weeks in Ulm, Baden-Württemberg, Germany

Now
59 °F

Partly cloudy.


Feels Like: 60 °F
Forecast: 60 / 69 °F
Wind: 3 mph from Northwest

Location: Laupheim Airport

Current Time: Jul 29, 2014 at 1:30:47 AM

Latest Report: Jul 29, 2014 at 12:20 AM


Visibility: 5 mi

Pressure: 29.86 "Hg

Humidity: 100%

Dew point: 59 °F

Location of UlmLocation

Historic Weather in Ulm — Graph

°F

Ulm temperature yesterday

Maximum temperature yesterday: 77 °F (at 4:20 PM)
Minimum temperature yesterday: 59 °F (at 4:20 AM)
Average temperature yesterday: 67 °F

Past Weeks' High & Low Weather Summary

 TemperatureHumidityPressure
High90 °F (Jul 19, 5:20 PM)100% (Jul 15, 1:20 AM)30.21 "Hg (Jul 15, 1:20 AM)
Low55 °F (Jul 16, 4:20 AM)29% (Jul 19, 5:20 PM)29.80 "Hg (Jul 28, 5:20 PM)
Average67 °F73%30.01 "Hg
* Reported Jul 14 12:20 AM — Jul 29 12:20 AM, Ulm, Weather by CustomWeather, © 2014

Note: Actual official high and low records may vary slightly from our data, if they occured in-between our weather recording intervals... More about our weather records

Advertising

Ulm weather history for previous 24 hours

 ConditionsComfort  
Time TempWeatherWind HumidityBarometerVisibility
12:20 AM
Jul 29
59 °FPartly cloudy.3 mph100%29.86 "Hg5 mi
11:20 PM
Jul 28
61 °FStrong thunderstorms. Fog.5 mph100%29.86 "Hg2 mi
10:46 PM61 °FStrong thunderstorms. Fog.13 mph100%29.83 "Hg2 mi
10:20 PM64 °FStrong thunderstorms. Partly cloudy.16 mph88%29.83 "Hg5 mi
9:20 PM70 °FThundershowers. Partly sunny.6 mph78%29.80 "HgN/A
8:20 PM72 °FPartly sunny.6 mph69%29.80 "HgN/A
7:20 PM75 °FScattered clouds.9 mph61%29.80 "HgN/A
6:20 PM77 °FPassing clouds.7 mph54%29.80 "HgN/A
5:20 PM77 °FScattered clouds.7 mph57%29.80 "HgN/A
4:20 PM77 °FPassing clouds.6 mph54%29.83 "HgN/A
3:20 PM75 °FScattered clouds.8 mph57%29.83 "HgN/A
2:20 PM75 °FScattered clouds.6 mph61%29.86 "HgN/A
1:20 PM73 °FPassing clouds.7 mph65%29.89 "HgN/A
12:20 PM73 °FScattered clouds.5 mph65%29.89 "HgN/A
11:20 AM70 °FScattered clouds.6 mph83%29.92 "Hg6 mi
10:20 AM66 °FPartly sunny.2 mph88%29.95 "Hg4 mi
9:20 AM63 °FPartly sunny.2 mph94%29.95 "Hg4 mi
8:20 AM61 °FFog.1 mph94%29.95 "Hg3 mi
7:20 AM59 °FFog.2 mph94%29.98 "Hg3 mi
6:20 AM59 °FFog.3 mph94%29.98 "Hg3 mi
5:20 AM59 °FFog.3 mph94%29.98 "Hg3 mi
4:20 AM59 °FPassing clouds.6 mph100%29.98 "Hg4 mi
3:20 AM61 °FPassing clouds.7 mph94%29.98 "HgN/A
2:20 AM61 °FPassing clouds.6 mph94%30.01 "HgN/A
1:20 AM61 °FPassing clouds.3 mph94%30.04 "HgN/A
Weather by CustomWeather, © 2014

See weather overviewHow to use our weather pages